Location: Bushey
(51.6333°N, 0.3667°W)
Time: 19:02:05
(UTC+00:00)

Cosmos 2154 Rocket - Pass Details

Date: 03 March 2021
Orbit: 966 x 996 km, 82.9° (Epoch: 17 April)

Event Time Altitude Azimuth Distance (km) Brightness Sun altitude
Rises 19:20:07 0° 197° (SSW) 3,657 7.1 -15.4°
Reaches altitude 10° 19:22:39 10° 200° (SSW) 2,710 6.4 -15.8°
Maximum altitude 19:28:49 68° 283° (WNW) 1,043 4.4 -16.8°
Drops below altitude 10° 19:35:02 10° 6° (N) 2,720 6.4 -17.7°
Sets 19:37:34 0° 10° (N) 3,671 7.1 -18.1°
